Dewpoint
62 51 46 42 34 34 38 42 47 46 47 50 52 51 50 53 53 53 63 60 61 64 67 70 76 76 76 77 77 77 76 76 77 77 77 76 76 75 74 74 73 73 74 74 74 73 73 74 74
42 42 39 36 29 26 37 43 45 46 51 53 52 51 51 54 58 60 60 60 64 65 67 68 76 76 76 76 76 76 76 77 77 76 76 76 75 75 73 74 73 72 72 73 73 73 73 74 73
44 41 28 24 22 21 35 40 46 48 51 52 52 52 51 55 59 58 60 62 64 66 66 71 76 76 75 75 76 76 76 76 76 76 75 75 74 74 75 75 74 72 71 72 72 73 73 73 73
34 31 28 22 19 24 35 43 45 47 50 50 52 51 57 61 59 61 62 63 64 64 65 73 76 75 75 75 75 76 75 75 75 75 74 74 74 74 75 75 74 73 71 72 72 73 73 73 73
34 25 19 21 17 24 29 35 35 45 48 47 50 51 56 63 64 61 62 64 63 62 65 69 75 75 75 74 74 75 75 75 75 74 73 74 74 75 75 74 73 73 72 72 72 73 73 73 72
23 26 16 15 16 20 25 29 37 42 45 46 47 50 57 64 63 60 61 63 63 62 66 70 75 75 75 75 75 75 75 75 75 74 74 74 74 75 74 75 74 73 73 72 73 73 73 73 72
23 20 14 11 13 17 20 26 26 32 37 42 42 48 59 63 64 62 61 62 62 62 65 69 69 73 75 75 75 75 75 75 75 75 75 75 74 74 74 74 74 73 73 73 72 72 72 71 71
19 25 15 15 14 16 24 24 25 24 27 36 43 46 57 63 65 64 62 61 60 60 63 70 67 66 66 69 74 75 75 75 75 75 75 75 74 74 74 74 75 74 74 73 72 71 71 70 70
22 21 15 15 15 17 23 23 26 25 31 39 42 49 59 65 64 63 62 60 58 58 61 64 62 64 63 62 70 74 74 74 75 74 75 73 64 68 70 73 74 74 73 73 72 71 70 70 71
16 12 14 13 17 16 22 25 25 31 38 43 57 61 63 64 62 61 60 58 58 57 58 60 60 62 61 62 66 65 67 66 66 66 69 65 66 66 66 71 72 72 72 71 71 70 71 70 65
18 11 11 19 20 24 24 24 25 28 43 43 54 61 62 62 61 59 57 58 58 59 60 59 62 64 62 62 64 62 62 63 65 67 68 66 65 67 65 66 66 67 70 65 67 67 65 64 65
17 15 13 12 20 23 24 24 22 29 43 46 53 60 61 60 58 57 56 57 57 58 63 62 63 66 65 62 64 63 62 63 64 66 69 68 66 66 64 62 62 65 64 64 66 63 65 66 66
18 16 19 15 13 17 22 22 19 26 38 52 57 60 60 58 57 57 57 57 59 59 64 67 68 70 67 66 65 64 64 63 63 66 68 66 65 65 64 62 62 62 62 63 63 63 64 64 64
17 17 13 19 13 11 10 15 21 26 41 54 58 58 58 56 57 59 58 57 60 60 63 68 69 71 67 68 67 66 66 65 64 65 66 68 66 66 63 63 62 61 61 61 62 62 63 62 61
18 21 22 12 14 21 21 15 21 24 49 56 57 58 57 57 57 58 59 60 61 62 64 68 70 71 71 69 69 67 66 64 64 64 68 69 69 68 67 62 62 61 62 62 63 64 65 64 62
22 17 19 16 12 18 23 17 20 39 53 57 56 57 57 58 58 60 60 61 62 63 66 68 68 70 71 68 68 66 66 66 65 62 65 69 68 69 68 64 63 63 64 64 64 64 63 63 63
20 13 19 12 17 17 18 16 27 44 51 57 57 57 57 59 60 62 62 63 63 64 66 67 68 68 71 70 70 69 67 66 65 65 62 66 68 67 69 65 64 67 65 64 64 64 65 65 64
13 13 14 13 16 16 15 17 38 46 50 55 57 57 58 60 63 65 64 64 66 66 66 68 67 69 69 67 68 66 64 65 64 64 64 65 64 64 67 66 67 67 65 64 64 69 67 68 70
14 15 13 15 12 16 17 21 34 46 49 55 56 57 58 60 63 64 65 66 67 68 69 69 68 70 69 66 65 64 63 63 63 63 65 65 64 64 66 63 65 67 67 69 71 68 69 69 68
14 14 13 19 18 17 17 25 41 49 47 55 56 57 59 61 63 64 64 65 66 68 69 70 70 70 70 66 66 63 62 63 64 66 68 69 68 69 69 69 66 70 70 69 68 69 67 67 67
15 14 15 16 22 21 24 36 45 50 52 54 57 59 60 61 62 63 63 64 65 66 67 68 70 70 70 69 66 67 67 69 67 67 68 69 69 70 70 70 71 69 68 67 67 68 68 67 66
16 14 13 17 28 18 28 20 37 45 51 55 58 59 60 61 62 63 64 64 64 64 65 66 67 69 70 70 67 69 66 64 66 68 69 68 67 66 66 68 68 69 68 67 67 67 67 67 65
15 13 15 20 27 28 31 21 28 40 45 50 56 58 60 61 61 62 63 64 63 63 64 64 66 67 68 69 70 67 69 68 68 66 65 63 62 61 61 62 62 63 64 64 64 65 65 65 64
19 13 13 26 23 21 24 22 31 37 37 42 52 56 59 60 61 62 63 62 62 62 63 64 65 65 67 68 69 69 68 66 64 62 61 60 58 58 59 59 60 60 61 61 60 61 61 61 63
18 17 17 19 16 17 21 16 21 30 35 38 43 51 56 58 58 59 59 58 60 60 61 62 64 64 65 66 66 66 66 66 64 61 60 59 58 58 61 62 62 61 62 62 63 62 61 59 58
19 18 16 19 14 14 19 19 21 32 40 40 44 48 54 57 57 58 57 57 58 59 59 60 63 63 64 64 64 64 64 62 62 62 60 59 56 55 58 58 58 57 57 58 60 57 58 60 58
16 15 21 22 19 13 11 14 21 32 40 44 46 50 53 57 58 58 57 57 58 58 59 60 60 60 61 61 60 61 60 60 58 59 58 54 56 55 56 56 56 55 54 55 57 53 56 57 57
19 19 18 20 21 19 14 15 14 26 28 34 38 44 49 55 57 57 57 58 57 57 58 58 59 58 58 58 58 57 57 57 57 57 56 56 56 55 55 54 54 53 53 53 54 52 53 55 52
17 16 21 24 21 19 16 15 28 34 38 39 40 44 48 53 55 56 55 55 55 55 55 56 56 56 56 56 56 56 55 55 56 55 55 55 56 55 53 53 52 51 51 52 53 52 51 50 52
22 24 26 22 28 22 22 22 38 40 40 43 42 45 48 51 53 55 53 52 53 53 52 53 55 53 53 53 54 54 54 54 55 54 54 54 53 53 51 51 50 49 49 51 50 49 48 48 47
Lifted_Index
4 4 5 4 4 2 1 -0 -1 -1 -1 -1 -2 -2 -2 -2 -2 -1 -0 1 0 -0 -0 -1 -3 -3 -4 -4 -4 -4 -4 -4 -4 -4 -4 -4 -3 -3 -2 -2 -2 -2 -2 -3 -3 -3 -3 -3 -3
5 5 5 4 4 2 0 -0 -0 -1 -1 -1 -2 -1 -1 -1 -1 -0 0 1 0 -0 -0 -1 -3 -3 -4 -4 -4 -4 -4 -4 -4 -3 -3 -3 -3 -3 -3 -2 -2 -2 -2 -3 -3 -3 -3 -3 -3
6 6 5 4 3 2 1 0 0 -1 -1 -1 -1 -1 -1 -1 -0 0 1 0 -0 -1 -1 -2 -3 -4 -4 -3 -4 -4 -4 -3 -3 -3 -3 -3 -3 -3 -3 -3 -3 -2 -2 -2 -3 -3 -3 -3 -3
7 6 5 4 3 2 2 1 0 -0 -1 -1 -1 -1 -1 -1 -0 0 0 -0 -1 -1 -1 -2 -3 -4 -3 -3 -3 -3 -3 -3 -3 -3 -2 -2 -3 -3 -3 -3 -3 -2 -2 -2 -3 -3 -3 -3 -3
7 6 5 3 3 3 3 2 1 0 -0 -1 -1 -2 -2 -2 -1 -0 0 -0 -1 -1 -2 -3 -4 -4 -3 -3 -3 -3 -3 -3 -3 -3 -2 -3 -3 -3 -3 -3 -3 -3 -3 -3 -3 -3 -3 -3 -3
7 6 4 3 2 3 4 4 2 1 0 -0 -1 -2 -3 -3 -2 -1 -0 -1 -1 -1 -2 -3 -3 -4 -3 -3 -3 -3 -4 -4 -3 -3 -3 -3 -3 -3 -3 -3 -3 -3 -3 -3 -3 -3 -3 -3 -3
7 6 4 3 2 3 4 5 4 3 2 1 -0 -2 -3 -4 -3 -2 -1 -1 -1 -2 -2 -3 -3 -3 -3 -3 -3 -4 -4 -4 -4 -4 -4 -4 -4 -4 -3 -4 -3 -3 -3 -3 -3 -3 -3 -3 -2
7 6 4 3 3 3 5 5 5 5 3 2 0 -2 -4 -4 -4 -3 -2 -1 -1 -1 -2 -3 -2 -2 -2 -2 -3 -4 -4 -4 -4 -4 -4 -4 -3 -3 -3 -3 -4 -4 -3 -3 -3 -2 -2 -2 -2
7 6 4 4 3 4 5 5 6 5 3 2 -0 -3 -4 -5 -4 -3 -2 -1 -1 -1 -1 -2 -2 -2 -1 -1 -2 -3 -3 -4 -3 -3 -3 -3 -2 -2 -3 -3 -3 -4 -3 -3 -2 -2 -2 -2 -2
6 5 4 4 4 4 5 6 6 4 2 0 -2 -4 -5 -5 -4 -4 -3 -2 -1 -1 -1 -1 -1 -1 -1 -1 -2 -2 -2 -2 -2 -2 -2 -2 -2 -2 -2 -3 -3 -3 -3 -2 -2 -2 -2 -2 -3
6 6 6 6 6 5 5 6 6 4 1 -1 -3 -5 -5 -5 -4 -4 -3 -2 -1 -1 -1 -1 -2 -2 -2 -2 -2 -1 -1 -1 -2 -2 -2 -2 -2 -2 -2 -2 -2 -2 -2 -2 -2 -2 -2 -3 -3
6 7 7 7 7 6 6 7 6 4 1 -2 -3 -5 -5 -5 -4 -3 -3 -2 -1 -1 -2 -2 -3 -3 -2 -2 -2 -2 -2 -2 -2 -2 -2 -2 -2 -2 -2 -2 -2 -2 -2 -2 -2 -3 -3 -3 -3
7 8 8 8 8 7 7 7 6 4 1 -2 -4 -5 -5 -4 -4 -3 -3 -2 -2 -2 -2 -3 -3 -3 -3 -3 -3 -2 -2 -2 -2 -3 -3 -3 -2 -2 -1 -1 -1 -1 -2 -2 -2 -3 -3 -3 -3
8 8 8 8 8 7 7 7 6 5 1 -3 -5 -5 -5 -4 -4 -3 -3 -2 -2 -2 -3 -3 -4 -4 -4 -3 -3 -3 -3 -2 -2 -3 -3 -3 -3 -2 -2 -1 -1 -1 -1 -2 -2 -3 -3 -3 -3
8 8 8 8 8 7 7 6 6 4 -1 -4 -6 -5 -5 -4 -4 -3 -3 -3 -3 -3 -3 -4 -4 -4 -4 -4 -4 -3 -3 -3 -2 -3 -3 -4 -3 -3 -2 -2 -2 -1 -2 -2 -3 -3 -3 -3 -3
6 6 6 7 7 7 6 5 4 2 -2 -5 -6 -6 -5 -5 -5 -4 -4 -3 -3 -3 -4 -4 -4 -4 -4 -4 -4 -4 -3 -3 -3 -2 -3 -3 -4 -4 -3 -3 -2 -2 -2 -3 -3 -4 -4 -4 -4
4 5 5 6 6 7 5 4 3 0 -3 -6 -6 -6 -6 -6 -5 -5 -5 -4 -4 -4 -4 -4 -5 -5 -5 -4 -4 -4 -3 -3 -3 -2 -2 -3 -3 -3 -4 -3 -3 -3 -3 -3 -3 -4 -4 -4 -4
3 3 4 5 5 6 5 3 1 -1 -4 -6 -7 -6 -6 -6 -6 -6 -5 -5 -5 -5 -5 -5 -5 -5 -5 -5 -4 -4 -3 -3 -3 -2 -2 -2 -2 -3 -3 -3 -3 -4 -4 -3 -4 -4 -4 -4 -4
4 4 4 4 5 5 4 3 1 -2 -4 -6 -7 -7 -7 -6 -5 -5 -5 -5 -6 -6 -6 -5 -5 -5 -5 -5 -4 -3 -3 -3 -3 -3 -3 -3 -3 -3 -3 -3 -3 -4 -4 -4 -4 -4 -4 -4 -4
5 4 4 4 5 5 4 2 -0 -2 -4 -6 -7 -7 -7 -6 -5 -5 -4 -5 -5 -6 -6 -6 -6 -6 -5 -5 -4 -4 -3 -4 -4 -4 -4 -3 -3 -3 -4 -3 -3 -4 -3 -3 -3 -4 -4 -3 -3
5 4 4 4 4 4 3 1 -1 -2 -4 -5 -6 -7 -7 -6 -6 -5 -5 -4 -5 -5 -5 -5 -6 -6 -5 -5 -4 -4 -4 -5 -5 -4 -4 -3 -3 -3 -4 -4 -3 -3 -3 -2 -2 -3 -3 -2 -2
5 4 4 3 3 2 2 1 -0 -2 -3 -5 -6 -7 -7 -7 -7 -6 -5 -5 -5 -5 -5 -5 -5 -5 -5 -5 -4 -5 -5 -5 -4 -4 -3 -3 -3 -3 -3 -3 -3 -3 -2 -2 -2 -2 -2 -2 -1
4 4 3 3 1 1 1 1 -0 -1 -2 -4 -6 -7 -7 -7 -7 -7 -6 -5 -5 -4 -4 -4 -4 -4 -4 -5 -5 -5 -5 -5 -4 -4 -3 -3 -4 -4 -4 -3 -3 -3 -2 -2 -2 -2 -2 -1 -1
4 3 2 1 0 0 0 0 -0 -1 -1 -2 -5 -6 -7 -7 -7 -6 -6 -5 -5 -4 -4 -4 -4 -4 -4 -5 -5 -5 -5 -4 -4 -4 -4 -4 -4 -4 -3 -3 -2 -2 -1 -1 -1 -1 -1 -1 -1
3 2 1 0 -0 -0 1 1 0 -0 -1 -2 -4 -5 -7 -7 -6 -5 -5 -5 -4 -3 -3 -4 -4 -5 -5 -5 -5 -5 -5 -5 -4 -4 -4 -4 -3 -3 -2 -0 1 1 2 2 2 1 1 1 1
2 1 0 -0 -0 -0 0 1 1 0 -1 -2 -3 -5 -6 -6 -5 -5 -5 -4 -3 -2 -2 -3 -4 -4 -4 -5 -5 -5 -5 -4 -4 -3 -3 -2 -1 0 2 3 4 5 5 5 4 4 3 3 3
1 1 0 0 -0 -0 0 0 1 1 -0 -1 -3 -4 -5 -5 -5 -4 -4 -4 -2 -2 -2 -2 -2 -2 -2 -2 -2 -2 -2 -2 -1 -0 1 2 3 4 5 6 6 7 7 6 6 6 6 5 5
1 1 0 0 -0 -0 -0 0 1 1 0 -0 -1 -2 -4 -4 -4 -4 -3 -3 -2 -1 -0 -0 -0 0 1 1 1 1 2 2 3 3 4 5 5 6 6 6 7 7 7 8 7 7 7 7 6
1 0 0 0 -0 -0 -0 -0 0 0 0 -0 -1 -2 -3 -3 -3 -3 -2 -1 -0 0 1 1 2 2 2 3 3 4 4 4 4 4 5 5 6 6 6 7 7 8 8 8 8 8 8 7 7
0 0 0 -0 -0 -0 0 0 -0 -0 -0 -1 -1 -2 -2 -3 -3 -3 -2 -1 0 1 2 2 2 3 3 3 4 4 4 4 4 4 5 5 6 6 7 7 8 8 8 8 8 8 8 8 7